User: anonymous   Login
Location: De Greiden
(52.9496°N, 5.9137°E)
Time: 20:34:35
(UTC+00:00)
Language:

Okean O Rocket - Orbit

View from above orbital plane
View from above orbital plane
View from above satellite
View from above satellite

Ground track
Ground track

The orbit data is extracted from the following two-line orbital elements,

1 25861U 99039B   21127.07657847  .00000036  00000-0  12501-4 0  9991
2 25861  98.2062 141.6417 0015248 193.8092 232.3908 14.78637184175589
Epoch (UTC): 07 May 2021 01:50:16
Eccentricity: 0.0015248
inclination: 98.2062°
perigee height: 623 km
apogee height: 644 km
right ascension of ascending node: 141.6417°
argument of perigee: 193.8092°
revolutions per day: 14.78637184
mean anomaly at epoch: 232.3908°
orbit number at epoch: 17558

The dashed part of the orbit path shows where the satellite is in the earth's shadow,  

DLR